Location: Newark
(42.8481°N, 0.4872°E)
Time: 17:57:41
(UTC+00:00)

Vanguard 1 - Pass Details

Date: 30 October 2020
Orbit: 650 x 3833 km, 34.2° (Epoch: 28 November)

Event Time Altitude Azimuth Distance (km) Brightness Sun altitude
Rises 14:38:46 0° 262° (W) 7,755 15.5 20.1°
Reaches altitude 10° 14:43:53 10° 260° (W) 6,871 15.5 19.4°
Maximum altitude 15:07:10 66° 185° (S) 3,677 13.5 16.2°
Drops below altitude 10° 15:23:52 10° 108° (ESE) 5,172 13.4 13.7°
Sets 15:27:05 0° 105° (ESE) 5,839 13.6 13.2°
